Weather History for Aswan, Egypt

Change the Weather History Date:

Tuesday, November 20, 2012

  Actual Average Record
Temperature  
Mean Temperature 73 °F -  
Max Temperature 86 °F 76 °F 95 °F (1999)
Min Temperature 60 °F 54 °F 53 °F (2006)
Cooling Degree Days 8    
Growing Degree Days 23 (Base 50)    
Moisture  
Dew Point 45 °F    
Average Humidity 35    
Maximum Humidity 42    
Minimum Humidity 23    
Precipitation  
Precipitation 0.00 in 0.00 in - ()
Sea Level Pressure  
Sea Level Pressure 29.98 in    
Wind  
Wind Speed 6 mph ()    
Max Wind Speed 9 mph    
Max Gust Speed -    
Visibility 6.0 miles    
Events      
Averages and records for this station are not official NWS values.
T = Trace of Precipitation, MM = Missing Value Source: Averaged Metar Reports

Daily Weather History Graph

Daily Weather History Graph

Search for Another Location

Airport:

Trip Planner

Search our weather history database for the weather conditions in past years. The results will help you decide how hot, cold, wet, or windy it might be!

Date:

Astronomy

Nov. 20, 2012 Rise Set
Actual Time 6:07 AM EET 5:01 PM EET
Civil Twilight 5:43 AM EET 5:25 PM EET
Nautical Twilight 5:15 AM EET 5:53 PM EET
Astronomical Twilight 4:48 AM EET 6:20 PM EET
Moon 11:50 AM EET (11/20) 11:48 PM EET (11/20)
Length of Visible Light 11h 42m
Length of Day
10h 54m
Waxing Crescent, 48% of the Moon is Illuminated
Nov 20
Waxing Crescent
Nov 20
First Quarter
Nov 28
Full
Dec 6
Last Quarter
Dec 13
New

Hourly Weather History & Observations

Time (EET) Temp. Heat Index Dew Point Humidity Pressure Visibility Wind Dir Wind Speed Gust Speed Precip Events Conditions
12:00 AM 66.2 °F - 35.6 °F 32% 30.01 in - North 6.9 mph - N/A   Clear
1:00 AM 66.2 °F - 37.4 °F 35% 30.01 in - North 6.9 mph - N/A   Clear
2:00 AM 64 °F - 36 °F 23% 29.99 in 6 mi North 4.6 mph - -  
2:00 AM 64.4 °F - 35.6 °F 34% 29.98 in - North 4.6 mph - N/A   Clear
3:00 AM 62.6 °F - 35.6 °F 37% 29.98 in - North 5.8 mph - N/A   Clear
4:00 AM 60.8 °F - 35.6 °F 39% 29.98 in - North 6.9 mph - N/A   Clear
5:00 AM 60.8 °F - 35.6 °F 39% 29.98 in - NNW 5.8 mph - N/A   Clear
6:00 AM 60.8 °F - 35.6 °F 39% 29.98 in - North 4.6 mph - N/A   Clear
7:00 AM 60.8 °F - 37.4 °F 42% 30.01 in - North 5.8 mph - N/A   Clear
8:00 AM 65 °F - 38 °F 26% 30.03 in 6 mi North 6.9 mph - -  
8:00 AM 64.4 °F - 37.4 °F 37% 30.04 in - North 6.9 mph - N/A   Clear
9:00 AM 69.8 °F - 42.8 °F 38% 30.04 in - SSW 6.9 mph - N/A   Clear
10:00 AM 75.2 °F - 48.2 °F 38% 30.04 in - NNE 8.1 mph - N/A   Clear
11:00 AM 78.8 °F - 51.8 °F 39% 30.01 in - North 6.9 mph - N/A   Clear
12:00 PM 82.4 °F 81.7 °F 55.4 °F 39% 29.98 in - North 4.6 mph - N/A   Clear
1:00 PM 84.2 °F 83.0 °F 55.4 °F 37% 29.95 in - North 4.6 mph - N/A   Clear
2:00 PM 85 °F - 54 °F 24% 29.91 in 6 mi North 6.9 mph - -  
2:00 PM 86.0 °F 84.2 °F 53.6 °F 33% 29.95 in - North 6.9 mph - N/A   Clear
3:00 PM 86.0 °F 84.2 °F 53.6 °F 33% 29.92 in - NNW 4.6 mph - N/A   Clear
4:00 PM 84.2 °F 82.8 °F 53.6 °F 35% 29.92 in - NNW 8.1 mph - N/A   Clear
5:00 PM 82.4 °F 81.4 °F 53.6 °F 37% 29.95 in - NNW 9.2 mph - N/A   Clear
6:00 PM 80.6 °F - 46.4 °F 30% 29.95 in - NNW 9.2 mph - N/A   Clear
7:00 PM 78.8 °F - 48.2 °F 34% 29.95 in - NW 6.9 mph - N/A   Clear
8:00 PM 77 °F - 47 °F 24% 29.95 in 6 mi North 8.1 mph - -  
8:00 PM 77.0 °F - 48.2 °F 36% 29.98 in - North 8.1 mph - N/A   Clear
9:00 PM 75.2 °F - 46.4 °F 36% 29.98 in - NNW 6.9 mph - N/A   Clear
10:00 PM 73.4 °F - 44.6 °F 36% 29.98 in - North 5.8 mph - N/A   Clear
11:00 PM 71.6 °F - 44.6 °F 38% 29.98 in - North 6.9 mph - N/A   Clear